User: anonymous   Login
Location: Innerarity Island Observatory
(30.3139°N, 87.4867°W)
Time: 09:02:44
(UTC-05:00)
Language:

JAS-2 - Orbit

View from above orbital plane
View from above orbital plane
View from above satellite
View from above satellite

Ground track
Ground track

The orbit data is extracted from the following two-line orbital elements,

1 24278U 96046B   16240.82406063 -.00000027  00000-0  88312-5 0  9997
2 24278  98.5829 156.6601 0350863  17.3159 343.9601 13.53070525989207
Epoch (UTC): 27 August 2016 19:46:38
Eccentricity: 0.0350863
inclination: 98.5829°
perigee height: 800 km
apogee height: 1322 km
right ascension of ascending node: 156.6601°
argument of perigee: 17.3159°
revolutions per day: 13.53070525
mean anomaly at epoch: 343.9601°
orbit number at epoch: 98920

The dashed part of the orbit path shows where the satellite is in the earth's shadow,  

DLR